Location: Waldport
(44.4270°N, 124.0680°W)
Time: 06:49:17
(UTC-07:00)

Daily predictions for brighter satellites

Satellite Brightness Start Highest point End
(mag) Time Altitude Azimuth Time Altitude Azimuth Time Altitude Azimuth
Meteor 2-15 4.4 21:34:51 10° S 21:40:53 80° E 21:46:58 10° N
Cosmos 2100 Rocket 4.5 21:35:17 10° N 21:41:20 46° ENE 21:47:25 10° SSE
Cosmos 676 Rocket 4.2 21:38:20 10° SSW 21:43:35 78° WNW 21:48:49 10° NNE
Cosmos 1459 Rocket 4.5 21:37:53 10° N 21:43:56 45° ENE 21:49:52 10° SSE
Aureole 2 Rocket 4.1 21:42:05 10° NW 21:45:55 37° WSW 21:49:34 10° S
CZ-3B DEB 4.4 21:36:53 10° WSW 21:46:34 70° NNW 21:59:41 10° NE
Cosmos 1939 Rocket 3.8 21:43:18 10° S 21:47:09 48° W 21:51:07 10° NNW
Milstar 3 Cent rocket 4.4 21:42:00 10° SW 21:48:15 28° S 21:59:04 10° SE
NOAA 11 4.3 21:43:49 10° SSE 21:49:10 66° ENE 21:54:34 10° N
Meteor 1-29 3.2 21:47:40 10° N 21:51:05 75° WNW 21:54:30 10° SSW
Cosmos 2173 Rocket 4.2 21:50:03 10° N 21:56:05 54° ENE 22:02:09 10° SSE
NOSS 3-4 (A) 4.1 21:49:15 10° NW 21:56:14 67° WSW 22:03:40 10° SSE
NOSS 3-4 (C) 4.1 21:49:21 10° NW 21:56:20 68° WSW 22:03:46 10° SSE
Cosmos 2084 3.9 21:56:48 10° S 22:00:23 32° ESE 22:03:51 10° ENE
Cosmos 2082 4.1 21:55:04 10° SW 22:00:39 68° WNW 22:06:18 10° NNE
Cosmos 1242 Rocket 3.0 21:57:19 10° N 22:00:56 47° ENE 22:04:19 11° SSE
Cosmos 1340 Rocket 2.9 21:58:10 10° SSW 22:02:11 82° W 22:06:16 10° N
Cosmos 2208 Rocket 4.2 21:57:00 10° NNW 22:02:18 65° ENE 22:07:26 11° SSE
Helios 1A 4.5 21:58:38 10° SSW 22:02:25 34° W 22:06:14 10° NNW
Helios 1B rocket 3.6 21:59:18 10° N 22:03:19 48° WNW 22:07:17 10° SW
Cosmos 2297 Rocket 2.8 22:02:34 10° SW 22:08:10 64° WNW 22:13:49 10° NNE
Cosmos 1802 Rocket 4.1 22:06:05 10° N 22:12:12 62° E 22:18:01 11° SSE
Cosmos 1300 4.2 22:09:10 10° NNE 22:12:19 23° ENE 22:14:45 13° ESE
SPOT 1/Viking Rocket 3.9 22:08:16 12° SE 22:12:53 51° ENE 22:17:52 10° N
Terra 3.2 22:10:52 11° ESE 22:14:30 25° ENE 22:18:22 10° N
Cosmos 1570 Rocket 4.1 22:12:45 10° NNW 22:18:06 85° WSW 22:22:57 12° SSE
Tiangong 1 1.1 22:15:29 10° WSW 22:18:09 42° SSE 22:20:29 12° E
Cosmos 2263 Rocket 3.9 22:20:31 12° ESE 22:22:16 14° E 22:24:57 10° ENE
Cosmos 1140 Rocket 4.4 22:18:09 10° SW 22:23:11 52° WNW 22:28:14 10° NNE
Lacrosse 4 Rocket 3.7 22:19:35 10° WSW 22:23:22 30° NW 22:27:15 10° NNE
MetOp-B 4.4 22:19:52 10° S 22:25:11 72° WSW 22:30:35 10° NNW
Cosmos 1408 Rocket 3.7 22:21:54 11° S 22:25:52 55° E 22:30:06 10° NNE
Cosmos 1726 2.7 22:22:57 10° N 22:26:29 42° ENE 22:28:47 19° SE
Cosmos 332 Rocket 4.5 22:23:13 10° N 22:27:54 43° ENE 22:31:24 17° SE
Cosmos 1867 3.6 22:24:39 10° SSW 22:30:01 64° ESE 22:35:26 10° NE
SS 2 4.5 22:28:23 10° NW 22:31:16 90° WSW 22:33:04 23° SE
ATLAS 5 CENTAUR R/B 1.8 22:27:19 10° SW 22:31:59 89° ESE 22:37:08 10° NE
Cosmos 2237 Rocket 4.2 22:30:25 10° NW 22:34:35 22° W 22:38:44 10° SSW
Cosmos 1076 Rocket 3.7 22:31:09 10° SSW 22:35:30 73° W 22:39:53 10° N
Cosmos 1908 4.0 22:35:03 10° NNW 22:38:50 49° W 22:42:21 11° SSW
Cosmos 1603 3.8 22:35:01 10° NNW 22:40:41 68° ENE 22:44:42 19° SE
Cosmos 1356 Rocket 3.8 22:38:58 10° SSW 22:43:10 66° WNW 22:47:27 10° N
SL-08 RB Rocket 3.9 22:40:20 15° S 22:44:08 68° WSW 22:48:44 10° NNW
Cosmos 1674 3.5 22:40:35 10° SSW 22:44:15 50° WNW 22:47:56 10° N
Cosmos 2221 3.9 22:40:23 10° NNW 22:44:24 35° W 22:48:23 10° SSW
Cosmos 1500 Rocket 4.5 22:42:58 21° SE 22:45:09 32° E 22:49:09 10° NNE
Cosmos 1455 4.4 22:44:15 10° NE 22:46:26 14° ENE 22:47:56 12° E
Cosmos 2016 Rocket 4.0 22:40:16 10° N 22:46:36 87° W 22:51:49 15° S
Cosmos 2058 4.2 22:48:12 21° ESE 22:49:40 25° E 22:53:08 10° NNE
KORONAS-FOTON 4.2 22:48:05 10° SSW 22:51:50 63° W 22:55:36 10° N
CARTOSAT-1 3.8 22:52:50 24° SE 22:55:15 58° ENE 22:59:31 10° N
Cosmos 468 Rocket 3.9 22:51:20 10° NNW 22:56:30 87° WSW 22:59:45 23° SSE
H-2A R/B 2.3 22:53:12 17° S 22:57:20 70° WSW 23:02:46 10° NNW
SL-16 R/B 3.5 22:52:37 10° NW 22:57:39 33° WSW 23:02:25 11° SSW
Cosmos 1943 3.7 22:53:23 10° NNW 22:58:52 49° ENE 23:02:27 21° SE
Cosmos 2151 3.7 22:58:37 26° SE 23:00:22 38° E 23:04:21 10° NNE
Cosmos 1766 Rocket 4.0 22:56:13 10° SSW 23:00:30 58° WNW 23:04:47 10° N
SPOT 5 3.9 22:58:14 12° SSW 23:02:19 42° W 23:07:05 10° NNW
H-2A ROCKET BODY 4.0 23:01:43 19° SSE 23:03:59 22° SE 23:16:01 10° E
Cosmos 2228 Rocket 3.1 22:59:42 10° N 23:04:20 85° E 23:06:56 26° S
Lacrosse 5 1.8 23:01:25 10° NW 23:06:31 87° NE 23:09:28 26° SE
ARGOS 4.3 23:02:08 10° SSW 23:07:03 39° W 23:12:07 10° NNW
Cosmos 1328 Rocket 3.5 23:04:10 10° N 23:08:33 80° W 23:10:56 26° S
Abrixas rocket 2.6 23:05:58 10° WNW 23:09:11 58° NNE 23:10:58 23° E
RESURS DK-1 2.4 23:06:23 10° NNW 23:10:34 75° WSW 23:12:27 31° SSE
Cosmos 1515 Rocket 3.5 23:06:39 10° N 23:11:01 79° E 23:13:06 30° SSE
Cosmos 2233 Rocket 4.1 23:06:20 10° N 23:12:33 67° E 23:16:13 25° SSE
USA 234 3.5 23:08:14 10° NE 23:14:45 73° NW 23:21:16 10° WSW
H-2A R/B 2.0 23:14:45 31° SSE 23:16:47 77° ENE 23:21:03 10° N
Cosmos 1743 Rocket 3.5 23:14:22 23° S 23:17:01 85° W 23:21:23 10° N
Meteor 1-11 4.3 23:13:31 23° S 23:17:07 64° E 23:22:53 10° NNE
Cosmos 371 Rocket 3.3 23:14:30 10° NNW 23:19:20 81° WSW 23:21:42 30° SSE
Cosmos 1151 Rocket 3.0 23:19:28 10° N 23:23:53 83° E 23:25:43 35° SSE
DMSP B5D2-2 4.3 23:19:44 10° N 23:24:58 71° WNW 23:29:18 15° SSW
Cosmos 1356 3.4 23:24:56 47° SSE 23:25:41 63° E 23:29:09 10° NNE
PSLV R/B 2.8 23:27:12 68° ESE 23:27:23 72° ENE 23:30:15 10° N
Meteor 1-27 4.2 23:23:35 10° N 23:29:27 86° E 23:32:32 29° SSE
CZ-4B R/B 3.7 23:26:27 10° NNE 23:31:40 56° E 23:33:56 32° SSE
SL-14 R/B 4.1 23:30:08 19° SW 23:32:43 47° WNW 23:36:34 10° N
Cosmos 1447 Rocket 4.5 23:29:03 24° S 23:33:06 81° E 23:39:30 10° N
CZ-2C R/B 4.0 23:32:13 10° NE 23:36:15 22° E 23:37:21 20° ESE
Cosmos 540 Rocket 4.0 23:33:43 10° N 23:38:43 47° ENE 23:40:59 29° ESE
IGS 5A 4.2 23:39:43 29° SSW 23:41:26 46° W 23:45:28 10° NNW
ERBS 2.1 23:38:14 10° NW 23:41:39 87° SW 23:42:02 68° SE
CZ-4 R/B 3.8 23:37:37 10° NNE 23:42:32 86° ESE 23:44:49 32° SSW
Cosmos 1354 Rocket 4.2 23:42:02 35° SSE 23:43:50 52° ESE 23:48:55 10° NNE
DELTA 2 DEB (DPAF) 4.1 23:45:50 42° SSE 23:47:20 82° ENE 23:51:49 10° NNW
Meteor 2-12 Rocket 4.4 23:42:46 10° N 23:48:52 78° W 23:51:58 31° S
Cosmos 2285 Rocket 4.1 23:42:57 10° NNW 23:49:18 72° ENE 23:52:25 32° SE
SL-19 R/B 4.3 23:44:36 10° N 23:49:52 71° WNW 23:53:34 21° SSW
Terra 2.8 23:49:45 24° SSW 23:52:02 39° W 23:56:30 10° NNW
Tiangong 1 3.1 23:50:50 10° W 23:51:39 17° W 23:51:39 17° W
SME Rocket 2.9 23:53:19 50° SSE 23:54:15 83° ENE 23:58:42 10° NNW
